CST,Max TemperatureF,Mean TemperatureF,Min TemperatureF,Max Dew PointF,MeanDew PointF,Min DewpointF,Max Humidity, Mean Humidity, Min Humidity, Max Sea Level PressureIn, Mean Sea Level PressureIn, Min Sea Level PressureIn, Max VisibilityMiles, Mean VisibilityMiles, Min VisibilityMiles, Max Wind SpeedMPH, Mean Wind SpeedMPH, Max Gust SpeedMPH,PrecipitationIn, CloudCover, Events, WindDirDegrees
2013-1-1,23,10,-4,19,10,-9,93,84,78,30.26,30.12,29.97,10,10,10,13,5,22,0.00,7,Snow,204
2013-1-2,30,18,6,27,16,3,93,83,74,30.22,29.99,29.89,10,10,3,18,9,25,0.00,6,Snow,291
2013-1-3,26,13,0,16,8,-6,85,78,64,30.31,30.21,30.03,10,10,4,20,10,22,0.00,2,Snow,270
2013-1-4,28,18,3,19,12,0,86,74,64,30.11,30.07,30.01,10,10,10,17,9,23,0.00,0,,261
2013-1-5,23,12,0,16,7,-4,92,81,68,30.14,29.99,29.90,10,9,1,26,7,33,0.00,1,Snow,293
2013-1-6,28,16,5,19,9,1,92,82,69,30.22,30.10,29.82,10,10,10,22,7,,0.00,1,,201
2013-1-7,35,27,19,25,21,16,86,72,64,29.96,29.89,29.79,10,10,10,22,10,,0.00,0,,256
2013-1-8,37,26,14,28,20,10,93,82,70,29.94,29.82,29.69,10,10,10,18,6,,0.00,1,,192
2013-1-9,35,29,23,27,22,18,86,75,64,30.28,30.16,29.94,10,10,10,25,13,32,0.00,0,,213
2013-1-10,39,36,33,34,29,25,100,76,60,30.11,29.91,29.57,10,8,1,26,19,33,0.28,3,Rain-Snow,167
2013-1-11,33,25,17,34,31,14,100,98,86,29.56,29.44,29.35,10,2,0,21,11,26,0.01,7,Fog-Rain-Snow,166
2013-1-12,15,9,3,12,2,0,86,77,67,30.12,29.91,29.51,10,8,2,28,18,36,0.00,5,Snow,309
2013-1-13,12,6,1,5,-1,-6,85,76,67,30.25,30.16,30.09,10,10,4,20,13,23,0.00,3,,302
2013-1-14,10,4,-2,5,-1,-8,92,78,72,30.39,30.30,30.22,10,10,7,13,6,,0.00,2,Snow,227
2013-1-15,28,16,3,19,7,0,85,70,58,30.22,30.03,29.71,10,10,10,22,8,26,0.00,2,,206
2013-1-16,37,20,3,32,16,-9,93,75,52,30.28,29.93,29.65,10,9,2,25,15,29,0.00,5,Snow,312
2013-1-17,24,12,0,18,6,-9,86,71,56,30.39,30.34,30.15,10,10,10,15,7,,0.00,4,,255
2013-1-18,37,27,17,30,24,12,93,79,65,30.14,29.83,29.73,10,10,10,20,10,,0.00,1,,224
2013-1-19,37,19,1,30,16,-6,93,75,62,30.34,29.96,29.70,10,10,2,36,14,47,0.00,2,Snow,299
2013-1-20,10,2,-5,1,-5,-17,78,70,55,30.42,30.36,30.33,10,9,2,23,12,29,0.00,1,Snow,313
2013-1-21,1,-4,-9,-8,-14,-18,78,66,59,30.40,30.34,30.29,10,10,7,21,13,26,0.00,0,,300
2013-1-22,8,-2,-13,3,-8,-18,84,73,60,30.36,30.29,30.17,10,10,4,9,2,,0.00,2,Snow,157
2013-1-23,10,0,-9,7,-3,-18,92,74,59,30.63,30.34,30.14,10,8,3,25,9,32,0.00,2,Snow,338
2013-1-24,14,2,-9,7,-6,-18,79,69,65,30.64,30.38,30.06,10,10,10,23,10,26,0.00,2,,146
2013-1-25,23,12,0,16,2,-8,80,70,57,30.31,30.14,29.98,10,10,10,26,13,37,0.00,2,Snow,315
2013-1-26,19,7,-5,12,2,-9,85,76,68,30.31,30.15,29.97,10,10,10,20,6,,0.00,0,,131
2013-1-27,33,22,10,32,20,9,100,87,79,29.96,29.82,29.75,10,8,1,15,3,,0.01,2,,133
2013-1-28,35,32,30,34,31,30,100,93,87,29.83,29.76,29.64,10,3,0,10,3,,0.01,5,Fog-Snow,28
2013-1-29,30,24,19,30,22,16,100,88,80,29.86,29.73,29.61,10,6,2,24,13,30,0.01,5,Snow,336
2013-1-30,17,6,-4,14,4,-11,86,78,66,29.91,29.85,29.82,10,9,2,30,20,36,0.00,7,Snow,331
2013-1-31,-4,-8,-13,-9,-16,-20,78,68,60,30.33,30.17,29.91,10,9,1,25,17,36,0.00,2,,310